Date_Time,Julian_Date,Latitude,Longitude,Instrument_Depth,U,V,Speed,Direction
(yyyy-mm-dd hh:mn:ss UTC),(JD),(+ deg. North),(+ deg. East),(m),(cm/s),(cm/s),(cm/s),(deg True)
1983-06-23 15:00:00 UTC,2445509.125000,29.5531,-94.1969,0082,1.14,-5.89,6.0000,169.0000
1983-06-23 15:30:00 UTC,2445509.145833,29.5531,-94.1969,0082,1.14,-5.89,6.0000,169.0000
1983-06-23 16:00:00 UTC,2445509.166667,29.5531,-94.1969,0082,0.12,-7.00,7.0000,179.0000
1983-06-23 16:30:00 UTC,2445509.187500,29.5531,-94.1969,0082,-1.53,-7.85,8.0000,191.0000
1983-06-23 17:00:00 UTC,2445509.208333,29.5531,-94.1969,0082,-3.37,-8.34,9.0000,202.0000
1983-06-23 17:30:00 UTC,2445509.229167,29.5531,-94.1969,0082,-5.67,-9.43,11.0000,211.0000
1983-06-23 18:00:00 UTC,2445509.250000,29.5531,-94.1969,0082,-6.62,-8.79,11.0000,217.0000
1983-06-23 18:30:00 UTC,2445509.270833,29.5531,-94.1969,0082,-7.71,-9.19,12.0000,220.0000
1983-06-23 19:00:00 UTC,2445509.291667,29.5531,-94.1969,0082,-10.07,-9.73,14.0000,226.0000
1983-06-23 19:30:00 UTC,2445509.312500,29.5531,-94.1969,0082,-13.93,-9.75,17.0000,235.0000
1983-06-23 20:00:00 UTC,2445509.333333,29.5531,-94.1969,0082,-14.42,-9.01,17.0000,238.0000
1983-06-23 20:30:00 UTC,2445509.354167,29.5531,-94.1969,0082,-13.11,-9.18,16.0000,235.0000
1983-06-23 21:00:00 UTC,2445509.375000,29.5531,-94.1969,0082,-12.44,-8.39,15.0000,236.0000
1983-06-23 21:30:00 UTC,2445509.395833,29.5531,-94.1969,0082,-12.24,-6.79,14.0000,241.0000
1983-06-23 22:00:00 UTC,2445509.416667,29.5531,-94.1969,0082,-12.89,-5.47,14.0000,247.0000
1983-06-23 22:30:00 UTC,2445509.437500,29.5531,-94.1969,0082,-12.79,-5.69,14.0000,246.0000
1983-06-23 23:00:00 UTC,2445509.458333,29.5531,-94.1969,0082,-11.26,-6.50,13.0000,240.0000
1983-06-23 23:30:00 UTC,2445509.479167,29.5531,-94.1969,0082,-10.06,-6.54,12.0000,237.0000
1983-06-24 00:00:00 UTC,2445509.500000,29.5531,-94.1969,0082,-8.48,-5.30,10.0000,238.0000
1983-06-24 00:30:00 UTC,2445509.520833,29.5531,-94.1969,0082,-6.12,-3.39,7.0000,241.0000
1983-06-24 01:00:00 UTC,2445509.541667,29.5531,-94.1969,0082,-5.35,-2.72,6.0000,243.0000
1983-06-24 01:30:00 UTC,2445509.562500,29.5531,-94.1969,0082,-4.49,-2.19,5.0000,244.0000
1983-06-24 02:00:00 UTC,2445509.583333,29.5531,-94.1969,0082,-4.53,-2.11,5.0000,245.0000
1983-06-24 02:30:00 UTC,2445509.604167,29.5531,-94.1969,0082,-3.63,-1.69,4.0000,245.0000
1983-06-24 03:00:00 UTC,2445509.625000,29.5531,-94.1969,0082,-3.63,-1.69,4.0000,245.0000
1983-06-24 03:30:00 UTC,2445509.645833,29.5531,-94.1969,0082,-4.37,-2.42,5.0000,241.0000
1983-06-24 04:00:00 UTC,2445509.666667,29.5531,-94.1969,0082,-4.05,-2.94,5.0000,234.0000
1983-06-24 04:30:00 UTC,2445509.687500,29.5531,-94.1969,0082,-3.83,-3.21,5.0000,230.0000
1983-06-24 05:00:00 UTC,2445509.708333,29.5531,-94.1969,0082,-2.80,-4.15,5.0000,214.0000
1983-06-24 05:30:00 UTC,2445509.729167,29.5531,-94.1969,0082,0.61,-4.96,5.0000,173.0000
1983-06-24 06:00:00 UTC,2445509.750000,29.5531,-94.1969,0082,4.01,-4.46,6.0000,138.0000
1983-06-24 06:30:00 UTC,2445509.770833,29.5531,-94.1969,0082,3.99,-3.01,5.0000,127.0000
1983-06-24 07:00:00 UTC,2445509.791667,29.5531,-94.1969,0082,3.94,-3.08,5.0000,128.0000
1983-06-24 07:30:00 UTC,2445509.812500,29.5531,-94.1969,0082,4.73,-3.69,6.0000,128.0000
1983-06-24 08:00:00 UTC,2445509.833333,29.5531,-94.1969,0082,4.73,-3.69,6.0000,128.0000
1983-06-24 08:30:00 UTC,2445509.854167,29.5531,-94.1969,0082,3.94,-3.08,5.0000,128.0000
1983-06-24 09:00:00 UTC,2445509.875000,29.5531,-94.1969,0082,3.19,-2.41,4.0000,127.0000
1983-06-24 09:30:00 UTC,2445509.895833,29.5531,-94.1969,0082,0.22,-0.97,1.0000,167.0000
1983-06-24 10:00:00 UTC,2445509.916667,29.5531,-94.1969,0082,-5.64,2.05,6.0000,290.0000
1983-06-24 10:30:00 UTC,2445509.937500,29.5531,-94.1969,0082,-9.51,3.09,10.0000,288.0000
1983-06-24 11:00:00 UTC,2445509.958333,29.5531,-94.1969,0082,-11.41,3.71,12.0000,288.0000
1983-06-24 11:30:00 UTC,2445509.979167,29.5531,-94.1969,0082,-10.34,3.76,11.0000,290.0000
1983-06-24 12:00:00 UTC,2445510.000000,29.5531,-94.1969,0082,-10.63,2.85,11.0000,285.0000
1983-06-24 12:30:00 UTC,2445510.020833,29.5531,-94.1969,0082,-11.88,1.67,12.0000,278.0000
1983-06-24 13:00:00 UTC,2445510.041667,29.5531,-94.1969,0082,-12.95,1.13,13.0000,275.0000
1983-06-24 13:30:00 UTC,2445510.062500,29.5531,-94.1969,0082,-12.98,0.68,13.0000,273.0000
1983-06-24 14:00:00 UTC,2445510.083333,29.5531,-94.1969,0082,-13.00,-0.23,13.0000,269.0000
1983-06-24 14:30:00 UTC,2445510.104167,29.5531,-94.1969,0082,-12.99,-0.45,13.0000,268.0000
1983-06-24 15:00:00 UTC,2445510.125000,29.5531,-94.1969,0082,-13.00,-0.00,13.0000,270.0000
1983-06-24 15:30:00 UTC,2445510.145833,29.5531,-94.1969,0082,-11.95,-1.05,12.0000,265.0000
1983-06-24 16:00:00 UTC,2445510.166667,29.5531,-94.1969,0082,-11.64,-2.90,12.0000,256.0000
1983-06-24 16:30:00 UTC,2445510.187500,29.5531,-94.1969,0082,-12.56,-3.36,13.0000,255.0000
1983-06-24 17:00:00 UTC,2445510.208333,29.5531,-94.1969,0082,-14.55,-3.63,15.0000,256.0000
1983-06-24 17:30:00 UTC,2445510.229167,29.5531,-94.1969,0082,-15.30,-4.68,16.0000,253.0000
1983-06-24 18:00:00 UTC,2445510.250000,29.5531,-94.1969,0082,-15.22,-4.94,16.0000,252.0000
1983-06-24 18:30:00 UTC,2445510.270833,29.5531,-94.1969,0082,-14.00,-5.38,15.0000,249.0000
1983-06-24 19:00:00 UTC,2445510.291667,29.5531,-94.1969,0082,-12.79,-5.69,14.0000,246.0000
1983-06-24 19:30:00 UTC,2445510.312500,29.5531,-94.1969,0082,-12.79,-5.69,14.0000,246.0000
1983-06-24 20:00:00 UTC,2445510.333333,29.5531,-94.1969,0082,-11.13,-4.50,12.0000,248.0000
1983-06-24 20:30:00 UTC,2445510.354167,29.5531,-94.1969,0082,-10.13,-4.30,11.0000,247.0000
1983-06-24 21:00:00 UTC,2445510.375000,29.5531,-94.1969,0082,-9.71,-5.16,11.0000,242.0000
1983-06-24 21:30:00 UTC,2445510.395833,29.5531,-94.1969,0082,-9.43,-5.67,11.0000,239.0000
1983-06-24 22:00:00 UTC,2445510.416667,29.5531,-94.1969,0082,-8.09,-5.88,10.0000,234.0000
1983-06-24 22:30:00 UTC,2445510.437500,29.5531,-94.1969,0082,-5.42,-7.19,9.0000,217.0000
1983-06-24 23:00:00 UTC,2445510.458333,29.5531,-94.1969,0082,-3.08,-8.46,9.0000,200.0000
1983-06-24 23:30:00 UTC,2445510.479167,29.5531,-94.1969,0082,-2.10,-10.80,11.0000,191.0000
1983-06-25 00:00:00 UTC,2445510.500000,29.5531,-94.1969,0082,-1.46,-11.91,12.0000,187.0000
1983-06-25 00:30:00 UTC,2445510.520833,29.5531,-94.1969,0082,-1.13,-12.95,13.0000,185.0000
1983-06-25 01:00:00 UTC,2445510.541667,29.5531,-94.1969,0082,-1.78,-16.91,17.0000,186.0000
1983-06-25 01:30:00 UTC,2445510.562500,29.5531,-94.1969,0082,-1.33,-18.95,19.0000,184.0000
1983-06-25 02:00:00 UTC,2445510.583333,29.5531,-94.1969,0082,0.00,-17.00,17.0000,180.0000
1983-06-25 02:30:00 UTC,2445510.604167,29.5531,-94.1969,0082,1.57,-14.92,15.0000,174.0000
1983-06-25 03:00:00 UTC,2445510.625000,29.5531,-94.1969,0082,2.43,-13.79,14.0000,170.0000
1983-06-25 03:30:00 UTC,2445510.645833,29.5531,-94.1969,0082,2.92,-12.67,13.0000,167.0000
1983-06-25 04:00:00 UTC,2445510.666667,29.5531,-94.1969,0082,2.25,-9.74,10.0000,167.0000
1983-06-25 04:30:00 UTC,2445510.687500,29.5531,-94.1969,0082,1.04,-5.91,6.0000,170.0000
1983-06-25 05:00:00 UTC,2445510.708333,29.5531,-94.1969,0082,0.49,-3.97,4.0000,173.0000
1983-06-25 05:30:00 UTC,2445510.729167,29.5531,-94.1969,0082,-0.10,-3.00,3.0000,182.0000
1983-06-25 06:00:00 UTC,2445510.750000,29.5531,-94.1969,0082,-2.00,-0.07,2.0000,268.0000
1983-06-25 06:30:00 UTC,2445510.770833,29.5531,-94.1969,0082,-4.70,1.71,5.0000,290.0000
1983-06-25 07:00:00 UTC,2445510.791667,29.5531,-94.1969,0082,-7.00,-0.00,7.0000,270.0000
1983-06-25 07:30:00 UTC,2445510.812500,29.5531,-94.1969,0082,-8.83,-4.69,10.0000,242.0000
1983-06-25 08:00:00 UTC,2445510.833333,29.5531,-94.1969,0082,-10.57,-9.18,14.0000,229.0000
1983-06-25 08:30:00 UTC,2445510.854167,29.5531,-94.1969,0082,-11.51,-11.11,16.0000,226.0000
1983-06-25 09:00:00 UTC,2445510.875000,29.5531,-94.1969,0082,-11.38,-12.63,17.0000,222.0000
1983-06-25 09:30:00 UTC,2445510.895833,29.5531,-94.1969,0082,-9.75,-13.93,17.0000,215.0000
1983-06-25 10:00:00 UTC,2445510.916667,29.5531,-94.1969,0082,-8.45,-15.89,18.0000,208.0000
1983-06-25 10:30:00 UTC,2445510.937500,29.5531,-94.1969,0082,-7.89,-16.18,18.0000,206.0000
1983-06-25 11:00:00 UTC,2445510.958333,29.5531,-94.1969,0082,-8.17,-16.04,18.0000,207.0000
1983-06-25 11:30:00 UTC,2445510.979167,29.5531,-94.1969,0082,-7.18,-15.41,17.0000,205.0000
1983-06-25 12:00:00 UTC,2445511.000000,29.5531,-94.1969,0082,-4.09,-13.39,14.0000,197.0000
1983-06-25 12:30:00 UTC,2445511.020833,29.5531,-94.1969,0082,-2.08,-11.82,12.0000,190.0000
1983-06-25 13:00:00 UTC,2445511.041667,29.5531,-94.1969,0082,-0.35,-9.99,10.0000,182.0000
1983-06-25 13:30:00 UTC,2445511.062500,29.5531,-94.1969,0082,4.85,-8.75,10.0000,151.0000
1983-06-25 14:00:00 UTC,2445511.083333,29.5531,-94.1969,0082,12.12,-7.00,14.0000,120.0000
1983-06-25 14:30:00 UTC,2445511.104167,29.5531,-94.1969,0082,16.57,-7.03,18.0000,113.0000
1983-06-25 15:00:00 UTC,2445511.125000,29.5531,-94.1969,0082,18.27,-8.13,20.0000,114.0000
1983-06-25 15:30:00 UTC,2445511.145833,29.5531,-94.1969,0082,20.25,-8.60,22.0000,113.0000
1983-06-25 16:00:00 UTC,2445511.166667,29.5531,-94.1969,0082,21.61,-7.87,23.0000,110.0000
1983-06-25 16:30:00 UTC,2445511.187500,29.5531,-94.1969,0082,22.83,-7.42,24.0000,108.0000
1983-06-25 17:00:00 UTC,2445511.208333,29.5531,-94.1969,0082,22.55,-8.21,24.0000,110.0000
1983-06-25 17:30:00 UTC,2445511.229167,29.5531,-94.1969,0082,23.18,-9.37,25.0000,112.0000
1983-06-25 18:00:00 UTC,2445511.250000,29.5531,-94.1969,0082,23.56,-10.99,26.0000,115.0000
1983-06-25 18:30:00 UTC,2445511.270833,29.5531,-94.1969,0082,21.43,-12.88,25.0000,121.0000
1983-06-25 19:00:00 UTC,2445511.291667,29.5531,-94.1969,0082,18.65,-15.10,24.0000,129.0000
1983-06-25 19:30:00 UTC,2445511.312500,29.5531,-94.1969,0082,14.32,-15.36,21.0000,137.0000
1983-06-25 20:00:00 UTC,2445511.333333,29.5531,-94.1969,0082,11.15,-12.83,17.0000,139.0000
1983-06-25 20:30:00 UTC,2445511.354167,29.5531,-94.1969,0082,7.22,-8.30,11.0000,139.0000
1983-06-25 21:00:00 UTC,2445511.375000,29.5531,-94.1969,0082,4.68,-5.20,7.0000,138.0000
1983-06-25 21:30:00 UTC,2445511.395833,29.5531,-94.1969,0082,4.01,-4.46,6.0000,138.0000
1983-06-25 22:00:00 UTC,2445511.416667,29.5531,-94.1969,0082,4.77,-5.12,7.0000,137.0000
1983-06-25 22:30:00 UTC,2445511.437500,29.5531,-94.1969,0082,5.95,-5.35,8.0000,132.0000
1983-06-25 23:00:00 UTC,2445511.458333,29.5531,-94.1969,0082,9.83,-6.88,12.0000,125.0000
1983-06-25 23:30:00 UTC,2445511.479167,29.5531,-94.1969,0082,17.32,-10.00,20.0000,120.0000
1983-06-26 00:00:00 UTC,2445511.500000,29.5531,-94.1969,0082,22.47,-10.96,25.0000,116.0000
1983-06-26 00:30:00 UTC,2445511.520833,29.5531,-94.1969,0082,24.27,-9.32,26.0000,111.0000
1983-06-26 01:00:00 UTC,2445511.541667,29.5531,-94.1969,0082,24.86,-7.60,26.0000,107.0000
1983-06-26 01:30:00 UTC,2445511.562500,29.5531,-94.1969,0082,26.08,-6.99,27.0000,105.0000
1983-06-26 02:00:00 UTC,2445511.583333,29.5531,-94.1969,0082,27.49,-5.34,28.0000,101.0000
1983-06-26 02:30:00 UTC,2445511.604167,29.5531,-94.1969,0082,28.78,-3.53,29.0000,97.0000
1983-06-26 03:00:00 UTC,2445511.625000,29.5531,-94.1969,0082,29.84,-3.14,30.0000,96.0000
1983-06-26 03:30:00 UTC,2445511.645833,29.5531,-94.1969,0082,30.88,-2.70,31.0000,95.0000
1983-06-26 04:00:00 UTC,2445511.666667,29.5531,-94.1969,0082,31.98,-1.12,32.0000,92.0000
1983-06-26 04:30:00 UTC,2445511.687500,29.5531,-94.1969,0082,32.98,1.15,33.0000,88.0000
1983-06-26 05:00:00 UTC,2445511.708333,29.5531,-94.1969,0082,30.88,2.70,31.0000,85.0000
1983-06-26 05:30:00 UTC,2445511.729167,29.5531,-94.1969,0082,27.79,3.41,28.0000,83.0000
1983-06-26 06:00:00 UTC,2445511.750000,29.5531,-94.1969,0082,24.69,3.91,25.0000,81.0000
1983-06-26 06:30:00 UTC,2445511.770833,29.5531,-94.1969,0082,23.48,4.99,24.0000,78.0000
1983-06-26 07:00:00 UTC,2445511.791667,29.5531,-94.1969,0082,21.60,4.20,22.0000,79.0000
1983-06-26 07:30:00 UTC,2445511.812500,29.5531,-94.1969,0082,19.75,3.13,20.0000,81.0000
1983-06-26 08:00:00 UTC,2445511.833333,29.5531,-94.1969,0082,18.93,1.66,19.0000,85.0000
1983-06-26 08:30:00 UTC,2445511.854167,29.5531,-94.1969,0082,20.00,0.00,20.0000,90.0000
1983-06-26 09:00:00 UTC,2445511.875000,29.5531,-94.1969,0082,21.92,-1.92,22.0000,95.0000
1983-06-26 09:30:00 UTC,2445511.895833,29.5531,-94.1969,0082,23.56,-4.58,24.0000,101.0000
1983-06-26 10:00:00 UTC,2445511.916667,29.5531,-94.1969,0082,20.92,-6.80,22.0000,108.0000
1983-06-26 10:30:00 UTC,2445511.937500,29.5531,-94.1969,0082,17.08,-8.33,19.0000,116.0000
1983-06-26 11:00:00 UTC,2445511.958333,29.5531,-94.1969,0082,13.57,-8.48,16.0000,122.0000
1983-06-26 11:30:00 UTC,2445511.979167,29.5531,-94.1969,0082,10.78,-7.27,13.0000,124.0000
1983-06-26 12:00:00 UTC,2445512.000000,29.5531,-94.1969,0082,11.02,-6.89,13.0000,122.0000
1983-06-26 12:30:00 UTC,2445512.020833,29.5531,-94.1969,0082,12.94,-9.40,16.0000,126.0000
1983-06-26 13:00:00 UTC,2445512.041667,29.5531,-94.1969,0082,15.09,-13.12,20.0000,131.0000
1983-06-26 13:30:00 UTC,2445512.062500,29.5531,-94.1969,0082,18.39,-15.43,24.0000,130.0000
1983-06-26 14:00:00 UTC,2445512.083333,29.5531,-94.1969,0082,17.09,-15.39,23.0000,132.0000
1983-06-26 14:30:00 UTC,2445512.104167,29.5531,-94.1969,0082,9.23,-11.82,15.0000,142.0000
1983-06-26 15:00:00 UTC,2445512.125000,29.5531,-94.1969,0082,4.36,-7.87,9.0000,151.0000
1983-06-26 15:30:00 UTC,2445512.145833,29.5531,-94.1969,0082,5.59,-8.29,10.0000,146.0000
1983-06-26 16:00:00 UTC,2445512.166667,29.5531,-94.1969,0082,7.36,-8.17,11.0000,138.0000
1983-06-26 16:30:00 UTC,2445512.187500,29.5531,-94.1969,0082,8.55,-6.92,11.0000,129.0000
1983-06-26 17:00:00 UTC,2445512.208333,29.5531,-94.1969,0082,12.12,-7.00,14.0000,120.0000
1983-06-26 17:30:00 UTC,2445512.229167,29.5531,-94.1969,0082,13.81,-5.86,15.0000,113.0000
1983-06-26 18:00:00 UTC,2445512.250000,29.5531,-94.1969,0082,8.80,1.87,9.0000,78.0000
1983-06-26 18:30:00 UTC,2445512.270833,29.5531,-94.1969,0082,4.69,11.05,12.0000,23.0000
1983-06-26 19:00:00 UTC,2445512.291667,29.5531,-94.1969,0082,7.51,14.13,16.0000,28.0000
1983-06-26 19:30:00 UTC,2445512.312500,29.5531,-94.1969,0082,10.90,15.56,19.0000,35.0000
1983-06-26 20:00:00 UTC,2445512.333333,29.5531,-94.1969,0082,12.31,15.76,20.0000,38.0000
1983-06-26 20:30:00 UTC,2445512.354167,29.5531,-94.1969,0082,12.21,14.55,19.0000,40.0000
1983-06-26 21:00:00 UTC,2445512.375000,29.5531,-94.1969,0082,8.76,14.57,17.0000,31.0000
1983-06-26 21:30:00 UTC,2445512.395833,29.5531,-94.1969,0082,3.87,15.52,16.0000,14.0000
1983-06-26 22:00:00 UTC,2445512.416667,29.5531,-94.1969,0082,2.23,15.84,16.0000,8.0000
1983-06-26 22:30:00 UTC,2445512.437500,29.5531,-94.1969,0082,3.63,14.55,15.0000,14.0000
1983-06-26 23:00:00 UTC,2445512.458333,29.5531,-94.1969,0082,5.47,12.89,14.0000,23.0000
1983-06-26 23:30:00 UTC,2445512.479167,29.5531,-94.1969,0082,6.50,11.26,13.0000,30.0000
1983-06-27 00:00:00 UTC,2445512.500000,29.5531,-94.1969,0082,6.56,7.55,10.0000,41.0000
1983-06-27 00:30:00 UTC,2445512.520833,29.5531,-94.1969,0082,7.71,4.64,9.0000,59.0000
1983-06-27 01:00:00 UTC,2445512.541667,29.5531,-94.1969,0082,9.40,3.42,10.0000,70.0000
1983-06-27 01:30:00 UTC,2445512.562500,29.5531,-94.1969,0082,9.40,3.42,10.0000,70.0000
1983-06-27 02:00:00 UTC,2445512.583333,29.5531,-94.1969,0082,5.67,1.95,6.0000,71.0000
1983-06-27 02:30:00 UTC,2445512.604167,29.5531,-94.1969,0082,4.76,-1.55,5.0000,108.0000
1983-06-27 03:00:00 UTC,2445512.625000,29.5531,-94.1969,0082,3.76,-7.06,8.0000,152.0000
1983-06-27 03:30:00 UTC,2445512.645833,29.5531,-94.1969,0082,1.67,-11.88,12.0000,172.0000
1983-06-27 04:00:00 UTC,2445512.666667,29.5531,-94.1969,0082,-2.09,-14.85,15.0000,188.0000
1983-06-27 04:30:00 UTC,2445512.687500,29.5531,-94.1969,0082,-5.25,-16.17,17.0000,198.0000
1983-06-27 05:00:00 UTC,2445512.708333,29.5531,-94.1969,0082,-7.89,-16.18,18.0000,206.0000
1983-06-27 05:30:00 UTC,2445512.729167,29.5531,-94.1969,0082,-9.75,-13.93,17.0000,215.0000
1983-06-27 06:00:00 UTC,2445512.750000,29.5531,-94.1969,0082,-10.91,-11.70,16.0000,223.0000
1983-06-27 06:30:00 UTC,2445512.770833,29.5531,-94.1969,0082,-13.21,-10.70,17.0000,231.0000
1983-06-27 07:00:00 UTC,2445512.791667,29.5531,-94.1969,0082,-16.11,-10.07,19.0000,238.0000
1983-06-27 07:30:00 UTC,2445512.812500,29.5531,-94.1969,0082,-16.45,-9.50,19.0000,240.0000
1983-06-27 08:00:00 UTC,2445512.833333,29.5531,-94.1969,0082,-13.12,-7.27,15.0000,241.0000
1983-06-27 08:30:00 UTC,2445512.854167,29.5531,-94.1969,0082,-7.95,-4.23,9.0000,242.0000
1983-06-27 09:00:00 UTC,2445512.875000,29.5531,-94.1969,0082,-5.20,-4.68,7.0000,228.0000
1983-06-27 09:30:00 UTC,2445512.895833,29.5531,-94.1969,0082,-3.18,-6.24,7.0000,207.0000
1983-06-27 10:00:00 UTC,2445512.916667,29.5531,-94.1969,0082,-1.69,-6.79,7.0000,194.0000
1983-06-27 10:30:00 UTC,2445512.937500,29.5531,-94.1969,0082,-0.61,-6.97,7.0000,185.0000
1983-06-27 11:00:00 UTC,2445512.958333,29.5531,-94.1969,0082,-1.25,-8.91,9.0000,188.0000
1983-06-27 11:30:00 UTC,2445512.979167,29.5531,-94.1969,0082,-9.01,-14.42,17.0000,212.0000
1983-06-27 12:00:00 UTC,2445513.000000,29.5531,-94.1969,0082,-20.14,-19.45,28.0000,226.0000
1983-06-27 12:30:00 UTC,2445513.020833,29.5531,-94.1969,0082,-24.09,-19.51,31.0000,231.0000
1983-06-27 13:00:00 UTC,2445513.041667,29.5531,-94.1969,0082,-23.46,-17.05,29.0000,234.0000
1983-06-27 13:30:00 UTC,2445513.062500,29.5531,-94.1969,0082,-26.06,-12.71,29.0000,244.0000
1983-06-27 14:00:00 UTC,2445513.083333,29.5531,-94.1969,0082,-30.53,-5.38,31.0000,260.0000
1983-06-27 14:30:00 UTC,2445513.104167,29.5531,-94.1969,0082,-30.96,1.62,31.0000,273.0000
1983-06-27 15:00:00 UTC,2445513.125000,29.5531,-94.1969,0082,-29.63,4.69,30.0000,279.0000
1983-06-27 15:30:00 UTC,2445513.145833,29.5531,-94.1969,0082,-25.52,4.96,26.0000,281.0000
1983-06-27 16:00:00 UTC,2445513.166667,29.5531,-94.1969,0082,-21.73,3.44,22.0000,279.0000
1983-06-27 16:30:00 UTC,2445513.187500,29.5531,-94.1969,0082,-18.86,2.32,19.0000,277.0000
1983-06-27 17:00:00 UTC,2445513.208333,29.5531,-94.1969,0082,-17.93,1.57,18.0000,275.0000
1983-06-27 17:30:00 UTC,2445513.229167,29.5531,-94.1969,0082,-18.00,0.31,18.0000,271.0000
1983-06-27 18:00:00 UTC,2445513.250000,29.5531,-94.1969,0082,-16.98,-0.89,17.0000,267.0000
1983-06-27 18:30:00 UTC,2445513.270833,29.5531,-94.1969,0082,-13.95,-1.22,14.0000,265.0000
1983-06-27 19:00:00 UTC,2445513.291667,29.5531,-94.1969,0082,-9.99,-0.52,10.0000,267.0000
1983-06-27 19:30:00 UTC,2445513.312500,29.5531,-94.1969,0082,-6.91,1.10,7.0000,279.0000
1983-06-27 20:00:00 UTC,2445513.333333,29.5531,-94.1969,0082,-7.65,2.34,8.0000,287.0000
1983-06-27 20:30:00 UTC,2445513.354167,29.5531,-94.1969,0082,-8.56,2.78,9.0000,288.0000
1983-06-27 21:00:00 UTC,2445513.375000,29.5531,-94.1969,0082,-5.20,3.00,6.0000,300.0000
1983-06-27 21:30:00 UTC,2445513.395833,29.5531,-94.1969,0082,-2.87,4.10,5.0000,325.0000
1983-06-27 22:00:00 UTC,2445513.416667,29.5531,-94.1969,0082,-2.82,5.30,6.0000,332.0000
1983-06-27 22:30:00 UTC,2445513.437500,29.5531,-94.1969,0082,-2.15,5.60,6.0000,339.0000
1983-06-27 23:00:00 UTC,2445513.458333,29.5531,-94.1969,0082,-2.44,5.48,6.0000,336.0000
1983-06-27 23:30:00 UTC,2445513.479167,29.5531,-94.1969,0082,-4.95,4.95,7.0000,315.0000
1983-06-28 00:00:00 UTC,2445513.500000,29.5531,-94.1969,0082,-6.24,3.18,7.0000,297.0000
1983-06-28 00:30:00 UTC,2445513.520833,29.5531,-94.1969,0082,-5.77,1.65,6.0000,286.0000
1983-06-28 01:00:00 UTC,2445513.541667,29.5531,-94.1969,0082,-3.90,0.90,4.0000,283.0000
1983-06-28 01:30:00 UTC,2445513.562500,29.5531,-94.1969,0082,-1.95,0.45,2.0000,283.0000
1983-06-28 02:00:00 UTC,2445513.583333,29.5531,-94.1969,0082,-0.97,0.22,1.0000,283.0000
1983-06-28 02:30:00 UTC,2445513.604167,29.5531,-94.1969,0082,-1.91,0.58,2.0000,287.0000
1983-06-28 03:00:00 UTC,2445513.625000,29.5531,-94.1969,0082,-2.95,-0.52,3.0000,260.0000
1983-06-28 03:30:00 UTC,2445513.645833,29.5531,-94.1969,0082,0.12,7.00,7.0000,1.0000
1983-06-28 04:00:00 UTC,2445513.666667,29.5531,-94.1969,0082,-1.22,-13.95,14.0000,185.0000
1983-06-28 04:30:00 UTC,2445513.687500,29.5531,-94.1969,0082,-2.64,-18.82,19.0000,188.0000
1983-06-28 05:00:00 UTC,2445513.708333,29.5531,-94.1969,0082,-4.72,-20.46,21.0000,193.0000
1983-06-28 05:30:00 UTC,2445513.729167,29.5531,-94.1969,0082,-7.02,-22.95,24.0000,197.0000
1983-06-28 06:00:00 UTC,2445513.750000,29.5531,-94.1969,0082,-7.31,-23.91,25.0000,197.0000
1983-06-28 06:30:00 UTC,2445513.770833,29.5531,-94.1969,0082,-5.41,-25.43,26.0000,192.0000
1983-06-28 07:00:00 UTC,2445513.791667,29.5531,-94.1969,0082,-5.04,-28.56,29.0000,190.0000
1983-06-28 07:30:00 UTC,2445513.812500,29.5531,-94.1969,0082,-9.65,-33.64,35.0000,196.0000
1983-06-28 08:00:00 UTC,2445513.833333,29.5531,-94.1969,0082,-14.85,-34.98,38.0000,203.0000
1983-06-28 08:30:00 UTC,2445513.854167,29.5531,-94.1969,0082,-17.25,-33.86,38.0000,207.0000
1983-06-28 09:00:00 UTC,2445513.875000,29.5531,-94.1969,0082,-17.94,-32.36,37.0000,209.0000
1983-06-28 09:30:00 UTC,2445513.895833,29.5531,-94.1969,0082,-19.08,-30.53,36.0000,212.0000
1983-06-28 10:00:00 UTC,2445513.916667,29.5531,-94.1969,0082,-20.65,-29.49,36.0000,215.0000
1983-06-28 10:30:00 UTC,2445513.937500,29.5531,-94.1969,0082,-20.57,-24.51,32.0000,220.0000
1983-06-28 11:00:00 UTC,2445513.958333,29.5531,-94.1969,0082,-19.17,-14.44,24.0000,233.0000
1983-06-28 11:30:00 UTC,2445513.979167,29.5531,-94.1969,0082,-19.23,-5.51,20.0000,254.0000
1983-06-28 12:00:00 UTC,2445514.000000,29.5531,-94.1969,0082,-21.95,-1.53,22.0000,266.0000
1983-06-28 12:30:00 UTC,2445514.020833,29.5531,-94.1969,0082,-23.77,3.34,24.0000,278.0000
1983-06-28 13:00:00 UTC,2445514.041667,29.5531,-94.1969,0082,-23.18,9.37,25.0000,292.0000
1983-06-28 13:30:00 UTC,2445514.062500,29.5531,-94.1969,0082,-20.78,12.00,24.0000,300.0000
1983-06-28 14:00:00 UTC,2445514.083333,29.5531,-94.1969,0082,0.73,20.99,21.0000,2.0000
1983-06-28 14:30:00 UTC,2445514.104167,29.5531,-94.1969,0082,-16.31,7.61,18.0000,295.0000
1983-06-28 15:00:00 UTC,2445514.125000,29.5531,-94.1969,0082,-15.65,6.64,17.0000,293.0000
1983-06-28 15:30:00 UTC,2445514.145833,29.5531,-94.1969,0082,-14.83,5.99,16.0000,292.0000
1983-06-28 16:00:00 UTC,2445514.166667,29.5531,-94.1969,0082,-15.13,5.21,16.0000,289.0000
1983-06-28 16:30:00 UTC,2445514.187500,29.5531,-94.1969,0082,-14.77,2.60,15.0000,280.0000
1983-06-28 17:00:00 UTC,2445514.208333,29.5531,-94.1969,0082,-14.00,-0.24,14.0000,269.0000
1983-06-28 17:30:00 UTC,2445514.229167,29.5531,-94.1969,0082,-11.82,-2.08,12.0000,260.0000
1983-06-28 18:00:00 UTC,2445514.250000,29.5531,-94.1969,0082,-10.57,-3.03,11.0000,254.0000
1983-06-28 18:30:00 UTC,2445514.270833,29.5531,-94.1969,0082,-8.22,-3.66,9.0000,246.0000
1983-06-28 19:00:00 UTC,2445514.291667,29.5531,-94.1969,0082,-6.89,-5.79,9.0000,230.0000
1983-06-28 19:30:00 UTC,2445514.312500,29.5531,-94.1969,0082,-7.22,-9.58,12.0000,217.0000
1983-06-28 20:00:00 UTC,2445514.333333,29.5531,-94.1969,0082,-8.24,-13.71,16.0000,211.0000
1983-06-28 20:30:00 UTC,2445514.354167,29.5531,-94.1969,0082,-8.24,-14.87,17.0000,209.0000
1983-06-28 21:00:00 UTC,2445514.375000,29.5531,-94.1969,0082,-9.26,-14.26,17.0000,213.0000
1983-06-28 21:30:00 UTC,2445514.395833,29.5531,-94.1969,0082,-10.93,-13.02,17.0000,220.0000
1983-06-28 22:00:00 UTC,2445514.416667,29.5531,-94.1969,0082,-11.59,-12.43,17.0000,223.0000
1983-06-28 22:30:00 UTC,2445514.437500,29.5531,-94.1969,0082,-11.57,-13.79,18.0000,220.0000
1983-06-28 23:00:00 UTC,2445514.458333,29.5531,-94.1969,0082,-13.90,-12.96,19.0000,227.0000
1983-06-28 23:30:00 UTC,2445514.479167,29.5531,-94.1969,0082,-16.18,-7.89,18.0000,244.0000
1983-06-29 00:00:00 UTC,2445514.500000,29.5531,-94.1969,0082,-17.78,-2.82,18.0000,261.0000
1983-06-29 00:30:00 UTC,2445514.520833,29.5531,-94.1969,0082,-19.00,-0.00,19.0000,270.0000
1983-06-29 01:00:00 UTC,2445514.541667,29.5531,-94.1969,0082,-20.00,0.35,20.0000,271.0000
1983-06-29 01:30:00 UTC,2445514.562500,29.5531,-94.1969,0082,-20.99,0.73,21.0000,272.0000
1983-06-29 02:00:00 UTC,2445514.583333,29.5531,-94.1969,0082,-19.81,2.78,20.0000,278.0000
1983-06-29 02:30:00 UTC,2445514.604167,29.5531,-94.1969,0082,-14.49,3.88,15.0000,285.0000
1983-06-29 03:00:00 UTC,2445514.625000,29.5531,-94.1969,0082,-7.52,2.74,8.0000,290.0000